"America/Chicago Time","Lifetime Energy (kWh)","Power (W)","AC Volts RMS (V) ","AC Amps RMS (mA)","Grid Frequency (Hz)","Inverter Temperature (C)"
"05/09/12 09:22:03","86.2296","155.5","217.42","714","60.0","21"
"05/09/12 09:27:02","86.2419","160.4","217.68","740","60.0","21"
"05/09/12 09:32:02","86.2546","164.2","217.43","752","60.03","21"
"05/09/12 09:37:02","86.2675","166.3","217.75","761","60.03","22"
"05/09/12 09:42:02","86.2805","170.5","217.74","778","60.03","22"
"05/09/12 09:47:02","86.294","173.7","217.88","789","60.03","22"
"05/09/12 09:52:01","86.3076","175.7","217.71","797","60.03","22"
"05/09/12 09:57:02","86.3215","180.5","218.41","819","60.03","22"
"05/09/12 10:02:01","86.3357","184.6","218.96","831","60.03","23"
"05/09/12 10:07:02","86.3502","186.5","217.74","842","60.0","23"
"05/09/12 10:12:01","86.3647","191.6","218.11","868","60.0","23"
"05/09/12 10:17:02","86.3647","194.6","218.28","880","60.03","23"
"05/09/12 10:22:02","86.3798","194.3","217.81","873","60.03","23"
"05/09/12 10:27:02","86.3951","196.5","218.56","883","60.03","24"
"05/09/12 10:32:01","86.4103","197.0","218.45","889","60.0","24"
"05/09/12 10:37:01","86.4256","196.7","218.49","882","60.0","24"
"05/09/12 10:42:02","86.4409","196.1","218.53","885","60.0","24"
"05/09/12 10:47:02","86.4563","196.9","218.29","888","60.03","24"
"05/09/12 10:52:02","86.4716","197.7","219.18","891","60.0","24"
"05/09/12 10:57:02","86.487","196.2","218.4","893","60.03","24"
"05/09/12 11:02:02","86.5024","196.9","219.25","889","60.03","24"
"05/09/12 11:07:03","86.5177","195.6","218.01","888","60.03","24"
"05/09/12 11:12:01","86.5329","196.4","218.56","886","60.03","24"
"05/09/12 11:17:02","86.5483","196.9","218.68","883","60.03","24"
"05/09/12 11:22:02","86.5636","197.8","218.42","887","60.03","24"
"05/09/12 11:27:01","86.5789","196.6","219.36","888","60.03","24"
"05/09/12 11:32:02","86.5942","196.1","218.16","885","60.0","24"
"05/09/12 11:37:02","86.6096","195.8","217.69","876","60.0","25"
"05/09/12 11:42:01","86.6248","195.8","217.97","884","60.03","25"
"05/09/12 11:47:03","86.6402","195.3","217.74","889","60.03","26"
"05/09/12 11:52:02","86.6554","196.4","218.39","871","60.03","26"
"05/09/12 11:57:01","86.6707","196.7","218.59","893","60.07","26"
"05/09/12 12:02:01","86.6859","195.3","218.65","883","60.0","26"
"05/09/12 12:07:02","86.7013","196.1","217.97","882","60.03","26"
"05/09/12 12:12:01","86.7164","193.8","218.19","887","60.03","26"
"05/09/12 12:17:02","86.7317","193.9","218.21","882","60.0","25"
"05/09/12 12:22:02","86.7469","195.8","218.34","870","60.03","26"
"05/09/12 12:27:01","86.7622","196.5","218.61","889","60.03","26"
"05/09/12 12:32:01","86.7775","196.2","218.26","882","60.0","26"
"05/09/12 12:37:03","86.7929","195.1","218.5","887","60.03","26"
"05/09/12 12:42:01","86.808","195.9","217.01","892","60.0","26"
"05/09/12 12:47:01","86.8233","195.8","217.27","885","60.03","26"
"05/09/12 12:52:02","86.8386","196.0","217.54","888","60.0","26"
"05/09/12 12:57:02","86.8539","196.5","218.46","885","60.0","26"
"05/09/12 13:02:03","86.8693","198.0","219.17","900","60.0","25"
"05/09/12 13:07:01","86.8845","196.6","219.0","876","60.03","26"
"05/09/12 13:12:02","86.8999","196.1","218.57","883","60.03","26"
"05/09/12 13:17:02","86.9152","196.7","217.76","883","60.03","27"
"05/09/12 13:22:03","86.9305","196.9","217.73","895","60.03","27"
"05/09/12 13:27:02","86.9458","196.6","217.6","898","60.03","26"
"05/09/12 13:32:01","86.961","195.9","217.65","892","60.0","27"
"05/09/12 13:37:02","86.9764","196.7","218.38","893","60.03","27"
"05/09/12 13:42:02","86.9917","195.8","218.27","897","60.0","27"
"05/09/12 13:47:02","87.007","197.2","217.81","883","60.03","26"
"05/09/12 13:52:03","87.0223","196.2","217.18","892","60.03","26"
"05/09/12 13:57:02","87.0376","195.7","217.86","892","60.03","27"
"05/09/12 14:02:01","87.0528","197.0","217.46","889","60.0","26"
"05/09/12 14:07:01","87.0682","196.3","217.1","890","60.03","26"
"05/09/12 14:12:02","87.0834","197.2","217.1","888","60.03","26"
"05/09/12 14:17:01","87.0987","196.9","217.61","882","60.03","26"
"05/09/12 14:22:03","87.1141","196.1","217.48","890","60.03","26"
"05/09/12 14:27:01","87.1293","196.0","218.24","889","60.03","26"
"05/09/12 14:32:01","87.1445","193.9","218.36","872","60.03","27"
"05/09/12 14:37:02","87.1595","191.7","218.32","861","60.03","27"
"05/09/12 14:42:02","87.1744","189.4","218.32","853","60.03","27"
"05/09/12 14:47:01","87.189","188.0","217.79","856","60.03","27"
"05/09/12 14:52:03","87.2036","186.3","216.94","847","60.0","26"
"05/09/12 14:57:02","87.218","181.8","217.21","829","60.07","26"
"05/09/12 15:02:02","87.232","179.1","217.66","817","60.03","26"
"05/09/12 15:07:02","87.2458","176.4","216.88","805","60.0","26"
"05/09/12 15:12:02","87.2594","171.2","218.1","779","60.03","27"
"05/09/12 15:17:02","87.2726","167.9","217.97","770","60.03","27"
"05/09/12 15:22:03","87.2857","165.5","217.14","756","60.0","27"
"05/09/12 15:27:01","87.2985","163.0","218.06","736","60.0","26"
"05/09/12 15:32:03","87.3111","159.8","218.05","730","60.03","26"
"05/09/12 15:37:02","87.3234","156.3","217.86","715","60.03","26"
"05/09/12 15:42:01","87.3354","151.6","217.25","699","60.03","27"
"05/09/12 15:47:02","87.3472","148.9","217.12","683","60.03","26"
"05/09/12 15:52:02","87.3586","145.2","217.77","674","60.03","26"
"05/09/12 15:57:02","87.3699","142.2","217.81","657","60.03","26"
"05/09/12 16:02:02","87.3807","138.7","218.19","643","60.03","26"
"05/09/12 16:07:02","87.3914","134.4","218.02","620","60.03","25"
"05/09/12 16:12:02","87.4016","129.8","216.81","601","60.03","25"
"05/09/12 16:17:02","87.4116","125.6","217.81","587","60.0","25"
"05/09/12 16:22:03","87.4212","121.9","216.56","573","60.03","25"
"05/09/12 16:27:02","87.4304","117.1","217.57","551","60.03","25"
"05/09/12 16:32:02","87.4394","113.7","216.42","534","60.03","24"
"05/09/12 16:37:01","87.4481","109.7","216.43","523","60.03","24"
"05/09/12 16:42:01","87.4565","105.6","216.8","505","60.03","24"
"05/09/12 16:47:02","87.4645","100.5","215.92","481","60.03","23"
"05/09/12 16:52:02","87.4721","95.7","216.01","464","60.0","23"
"05/09/12 16:57:02","87.4793","90.8","216.34","441","60.07","23"
"05/09/12 17:02:02","87.4863","85.8","216.04","420","60.03","23"
"05/09/12 17:07:02","87.4927","81.1","215.72","401","60.0","23"
"05/09/12 17:12:05","87.4989","76.6","215.9","378","60.0","23"
"05/09/12 17:17:06","87.5047","71.9","215.21","358","60.0","22"
"05/09/12 17:22:05","87.5101","67.1","216.21","340","60.03","22"
"05/09/12 17:27:06","87.5151","62.0","215.11","317","60.03","22"
"05/09/12 17:32:07","87.5192","62.3","214.55","318","60.03","22"
"05/09/12 17:37:06","87.5231","45.6","214.74","319","60.03","22"
"05/09/12 17:42:05","87.5268","48.9","213.93","278","60.03","22"
"05/09/12 17:47:06","87.5304","42.7","214.97","279","60.03","21"
"05/09/12 17:52:06","87.5334","32.2","213.94","139","60.03","20"
"05/09/12 17:57:07","87.5362","32.8","215.13","76","60.03","20"
"05/09/12 18:02:05","87.5387","27.3","214.79","100","60.03","20"
"05/09/12 18:07:07","87.541","29.9","214.3","30","60.0","19"
"05/09/12 18:12:06","87.5429","30.9","214.22","65","60.07","19"
"05/09/12 18:17:06","87.5445","10.8","214.39","59","60.03","19"
"05/09/12 18:22:05","87.5459","12.1","213.44","8","60.03","18"
"05/09/12 18:27:06","87.5471","23.7","213.89","142","60.0","18"
"05/09/12 18:32:05","87.548","13.9","214.4","57","60.0","18"
"05/09/12 18:37:06","87.5488","7.2","214.1","223","60.0","18"
"05/09/12 18:42:07","87.5494","0.0","213.62","20","60.03","18"
"05/09/12 18:47:05","87.55","12.2","213.59","33","60.03","18"
"05/09/12 18:52:06","87.5505","0.0","212.96","111","60.03","17"
"05/09/12 18:57:07","87.5509","0.0","213.46","0","60.0","17"
"05/09/12 19:02:05","87.5513","12.2","213.21","69","60.03","17"
"05/09/12 19:07:07","87.5517","0.0","213.67","0","60.0","17"
"05/09/12 19:12:06","87.552","14.7","214.12","15","60.03","17"
"05/09/12 19:17:06","87.5524","0.0","213.05","194","60.03","17"
"05/09/12 19:22:07","87.5527","14.2","213.75","22","60.03","17"
"05/09/12 19:27:07","87.5529","12.4","213.44","31","60.0","16"
"05/10/12 06:12:08","87.554","0.0","212.59","0","60.03","11"
"05/10/12 06:17:09","87.5544","11.2","213.01","1","60.03","12"
"05/10/12 06:22:06","87.5549","3.3","213.24","0","60.03","12"
"05/10/12 06:27:07","87.5556","14.2","213.49","16","60.03","12"
"05/10/12 06:32:07","87.5564","15.6","214.28","29","60.03","13"
"05/10/12 06:37:06","87.5575","13.7","214.11","6","60.03","13"
"05/10/12 06:42:06","87.5587","31.0","213.77","118","60.03","13"
"05/10/12 06:47:06","87.5603","15.5","213.89","114","60.03","13"
"05/10/12 06:52:06","87.562","25.5","212.72","117","60.03","14"
"05/10/12 06:57:06","87.5642","25.6","214.35","95","60.07","14"
"05/10/12 07:02:07","87.5666","33.7","215.01","146","60.0","15"
"05/10/12 07:07:07","87.5694","33.2","213.78","328","60.03","15"
"05/10/12 07:12:07","87.5724","46.6","215.34","302","60.0","15"
"05/10/12 07:17:06","87.5759","51.7","215.0","368","60.03","16"
"05/10/12 07:22:07","87.5796","36.6","214.23","114","60.03","16"
"05/10/12 07:27:06","87.5835","50.2","214.66","264","60.03","17"
"05/10/12 07:32:07","87.5873","53.2","214.24","108","60.03","17"
"05/10/12 07:37:06","87.5912","57.1","214.58","288","60.0","17"
"05/10/12 07:42:06","87.595","60.8","213.89","260","60.0","18"
"05/10/12 07:47:07","87.599","62.6","213.89","240","60.03","18"
"05/10/12 07:52:06","87.603","40.7","215.83","124","60.03","18"
"05/10/12 07:57:07","87.6074","61.0","215.67","392","60.03","18"
"05/10/12 08:02:07","87.6128","88.7","216.0","434","60.03","19"
"05/10/12 08:07:06","87.6199","93.6","215.72","455","60.0","19"
"05/10/12 08:12:07","87.6273","98.1","216.74","472","60.0","20"
"05/10/12 08:17:07","87.6352","102.6","215.17","491","60.03","20"
"05/10/12 08:22:07","87.6434","107.7","214.78","510","60.0","20"
"05/10/12 08:27:08","87.6519","112.0","214.58","537","60.0","20"
"05/10/12 08:32:07","87.6608","116.2","214.89","555","60.03","21"
"05/10/12 08:37:06","87.6699","120.4","215.38","568","60.03","21"
"05/10/12 08:42:07","87.6795","124.2","215.12","589","60.03","22"
"05/10/12 08:47:07","87.6894","128.4","214.75","607","60.0","22"
"05/10/12 08:52:07","87.6995","132.2","214.06","622","60.03","23"
"05/10/12 08:57:07","87.71","136.0","215.81","638","60.03","23"
"05/10/12 09:02:07","87.7207","140.2","215.37","655","60.03","23"
"05/10/12 09:07:07","87.7318","144.2","215.19","668","60.07","23"
"05/10/12 09:12:07","87.7432","147.1","215.6","689","60.0","24"
"05/10/12 09:17:07","87.7548","151.1","217.24","698","60.0","24"
"05/10/12 09:22:07","87.7668","154.5","217.01","716","60.03","24"
"05/10/12 09:27:07","87.779","158.4","217.39","727","60.03","25"
"05/10/12 09:32:06","87.7914","162.6","217.3","739","60.03","25"
"05/10/12 09:37:07","87.8042","165.1","216.81","757","60.03","25"
"05/10/12 09:42:06","87.8171","167.3","217.25","764","60.03","25"
"05/10/12 09:47:06","87.8303","171.5","217.51","780","60.0","25"
"05/10/12 09:52:07","87.8438","174.4","217.57","795","60.03","26"
"05/10/12 09:57:06","87.8574","175.8","216.98","804","60.03","26"
"05/10/12 10:02:06","87.8712","179.1","217.21","816","60.0","27"
"05/10/12 10:07:06","87.8853","182.2","217.24","827","60.0","27"
"05/10/12 10:12:07","87.8996","184.7","217.33","837","60.0","27"
"05/10/12 10:17:07","87.9141","187.5","218.37","847","60.03","27"
"05/10/12 10:22:06","87.9288","189.7","218.1","855","60.03","28"
"05/10/12 10:27:06","87.9436","191.1","218.34","863","60.0","28"
"05/10/12 10:32:08","87.9586","192.0","218.05","872","60.0","29"
"05/10/12 10:37:07","87.9737","194.8","217.26","884","60.03","29"
"05/10/12 10:42:06","87.9889","196.6","217.45","891","60.03","29"
"05/10/12 10:47:07","88.0043","196.3","217.64","892","60.0","29"
"05/10/12 10:52:06","88.0195","196.7","217.97","889","60.03","29"
"05/10/12 10:57:06","88.0348","196.2","217.27","887","60.0","29"
"05/10/12 11:02:07","88.0501","196.7","218.56","882","60.0","30"
"05/10/12 11:07:07","88.0654","196.5","219.33","886","60.03","30"
"05/10/12 11:12:07","88.0807","197.1","219.01","884","60.03","30"
"05/10/12 11:17:06","88.096","196.2","219.01","882","60.03","30"
"05/10/12 11:22:07","88.1113","196.2","218.27","885","60.0","30"
"05/10/12 11:27:07","88.1267","195.2","218.13","886","60.03","30"
"05/10/12 11:32:07","88.1419","197.1","217.83","891","60.0","30"
"05/10/12 11:37:07","88.1572","197.1","217.93","895","60.0","31"
"05/10/12 11:42:08","88.1725","197.3","218.3","895","60.03","31"
"05/10/12 11:47:07","88.1878","195.7","218.04","887","60.03","31"
"05/10/12 11:52:07","88.2031","196.1","218.61","886","60.03","31"
"05/10/12 11:57:08","88.2185","196.3","218.47","892","60.03","31"
"05/10/12 12:02:06","88.2336","196.4","218.81","887","60.03","31"
"05/10/12 12:07:08","88.249","195.5","217.73","878","60.03","31"
"05/10/12 12:12:06","88.2642","196.7","218.35","877","60.0","31"
"05/10/12 12:17:07","88.2796","196.4","218.13","880","60.03","31"
"05/10/12 12:22:06","88.2948","196.5","218.16","876","60.03","31"
"05/10/12 12:27:07","88.3101","196.5","217.71","892","60.0","31"
"05/10/12 12:32:07","88.3255","196.2","218.18","881","60.03","31"
"05/10/12 12:37:08","88.3408","196.1","218.92","876","60.0","31"
"05/10/12 12:42:07","88.356","196.7","218.05","886","60.0","32"
"05/10/12 12:47:06","88.3713","195.9","217.98","894","60.03","32"
"05/10/12 12:52:06","88.3866","197.1","218.8","889","60.0","31"
"05/10/12 12:57:07","88.4019","196.3","218.21","887","60.0","32"
"05/10/12 13:02:07","88.4173","196.6","218.74","877","60.03","32"
"05/10/12 13:07:07","88.4326","196.3","217.77","889","60.0","32"
"05/10/12 13:12:07","88.4478","197.0","218.38","891","60.0","32"
"05/10/12 13:17:07","88.4632","196.0","218.46","884","60.03","32"
"05/10/12 13:22:07","88.4784","196.3","217.67","894","60.03","32"
"05/10/12 13:27:07","88.4937","197.2","218.68","887","60.0","32"
"05/10/12 13:32:08","88.5091","195.7","217.83","889","60.0","32"
"05/10/12 13:37:07","88.5243","196.9","218.89","886","60.03","32"
"05/10/12 13:42:07","88.5396","196.6","218.41","893","60.03","32"
"05/10/12 13:47:06","88.5549","196.3","218.15","884","60.0","33"
"05/10/12 13:52:07","88.5702","196.5","219.1","883","60.03","33"
"05/10/12 13:57:07","88.5855","196.1","219.74","882","60.03","33"
"05/10/12 14:02:07","88.6008","195.9","218.64","883","60.03","34"
"05/10/12 14:07:06","88.6161","195.3","219.11","884","60.03","34"
"05/10/12 14:12:08","88.6314","196.1","219.06","882","60.0","34"
"05/10/12 14:17:06","88.6467","195.3","218.5","879","60.0","34"
"05/10/12 14:22:07","88.6619","193.6","219.25","872","60.03","34"
"05/10/12 14:27:06","88.6768","191.1","218.68","867","60.03","33"
"05/10/12 14:32:07","88.6916","189.1","218.6","853","60.03","33"
"05/10/12 14:37:06","88.7063","186.3","218.94","843","60.03","33"
"05/10/12 14:42:07","88.7207","183.8","218.79","824","60.03","33"
"05/10/12 14:47:06","88.7349","181.2","219.3","824","60.0","33"
"05/10/12 14:52:08","88.7491","178.4","218.01","807","60.03","33"
"05/10/12 14:57:06","88.7628","176.9","217.31","808","60.0","33"
"05/10/12 15:02:07","88.7765","174.1","218.15","796","60.03","32"
"05/10/12 15:07:07","88.7899","170.0","218.23","772","60.03","33"
"05/10/12 15:12:06","88.803","167.9","218.14","765","60.0","32"
"05/10/12 15:17:07","88.8161","164.9","218.25","744","60.0","32"
"05/10/12 15:22:06","88.8287","162.6","218.02","740","60.03","32"
"05/10/12 15:27:07","88.8413","158.3","217.44","724","60.0","32"
"05/10/12 15:32:06","88.8534","156.1","217.71","718","60.0","32"
"05/10/12 15:37:07","88.8655","152.3","218.22","697","60.03","32"
"05/10/12 15:42:08","88.8772","149.0","217.57","688","60.03","32"
"05/10/12 15:47:06","88.8886","145.2","217.43","672","60.0","32"
"05/10/12 15:52:06","88.8997","141.6","216.76","657","60.0","31"
"05/10/12 15:57:08","88.9107","139.0","217.37","645","60.03","31"
"05/10/12 16:02:07","88.9213","135.0","217.05","632","60.0","31"
"05/10/12 16:07:07","88.9317","131.3","216.94","605","60.0","30"
"05/10/12 16:12:07","88.9417","126.8","217.99","593","60.07","30"
"05/10/12 16:17:06","88.9514","122.5","216.87","574","60.0","30"
"05/10/12 16:22:07","88.9608","117.5","217.09","555","60.03","30"
"05/10/12 16:27:07","88.9698","113.7","216.61","533","60.03","30"
"05/10/12 16:32:06","88.9784","109.7","217.34","516","60.03","30"
"05/10/12 16:37:08","88.9868","105.6","217.19","500","60.0","30"
"05/10/12 16:42:07","88.9948","101.2","216.22","484","60.0","29"
"05/10/12 16:47:07","89.0025","97.2","216.85","465","60.03","29"
"05/10/12 16:52:07","89.0098","92.6","216.81","446","60.03","29"
"05/10/12 16:57:06","89.0168","87.6","216.69","430","60.07","29"
"05/10/12 17:02:06","89.0234","82.9","217.0","405","60.07","29"
"05/10/12 17:07:07","89.0298","78.1","215.56","387","60.0","29"
"05/10/12 17:12:06","89.0357","73.4","216.06","367","60.03","29"
"05/10/12 17:17:06","89.0412","68.8","216.56","345","60.0","29"
"05/10/12 17:22:06","89.0464","64.7","215.85","324","60.03","29"
"05/10/12 17:27:07","89.0511","46.4","215.49","379","60.07","29"
"05/10/12 17:32:07","89.055","53.3","215.47","105","60.0","29"
"05/10/12 17:37:08","89.0588","54.7","215.79","132","60.07","29"
"05/10/12 17:42:06","89.0626","39.1","216.05","163","60.03","29"
"05/10/12 17:47:07","89.066","47.4","215.13","175","60.0","29"
"05/10/12 17:52:07","89.069","41.2","215.15","206","60.03","29"
"05/10/12 17:57:08","89.0718","38.0","216.15","288","60.03","29"
"05/10/12 18:02:07","89.0742","33.4","215.66","254","60.07","28"
"05/10/12 18:07:07","89.0763","32.1","215.76","192","60.03","28"
"05/10/12 18:12:06","89.0781","29.0","214.34","226","60.03","28"
"05/10/12 18:17:06","89.0797","13.2","214.29","221","60.03","27"
"05/10/12 18:22:06","89.0809","11.7","213.74","125","60.03","26"
"05/10/12 18:27:07","89.082","13.6","213.85","16","60.03","25"
"05/10/12 18:32:06","89.0828","15.9","214.48","16","60.0","24"
"05/10/12 18:37:07","89.0836","5.7","214.25","0","60.0","23"
"05/10/12 18:42:07","89.0841","14.1","213.62","0","60.03","23"
"05/10/12 18:47:08","89.0847","0.0","214.06","0","60.03","22"
"05/10/12 18:52:07","89.0851","0.0","214.32","0","60.03","22"
"05/10/12 18:57:08","89.0855","10.6","213.49","60","60.03","21"
"05/10/12 19:02:07","89.086","0.0","212.48","0","60.03","20"
"05/10/12 19:07:07","89.0863","14.0","213.46","1","60.0","20"
"05/10/12 19:12:07","89.0867","9.2","213.85","0","60.03","19"
"05/10/12 19:17:06","89.087","0.0","212.85","0","60.0","19"
"05/10/12 19:22:08","89.0872","0.0","213.17","0","60.0","19"
"05/10/12 19:27:07","89.0875","0.0","213.26","0","60.03","19"
"05/11/12 06:17:08","89.0886","1.0","213.46","119","60.0","11"
"05/11/12 06:22:09","89.089","6.6","212.85","0","60.03","12"
"05/11/12 06:27:08","89.0895","0.0","213.1","0","60.0","12"
"05/11/12 06:32:06","89.0903","12.1","212.95","1","60.0","13"
"05/11/12 06:37:06","89.0913","14.2","214.42","116","60.03","13"
"05/11/12 06:42:06","89.0926","21.9","214.17","98","60.0","13"
"05/11/12 06:47:07","89.0942","29.5","213.95","61","60.03","14"
"05/11/12 06:52:08","89.0961","26.9","214.54","28","60.03","15"
"05/11/12 06:57:07","89.0982","33.6","214.35","150","60.07","15"
"05/11/12 07:02:07","89.1007","36.8","214.53","155","60.0","16"
"05/11/12 07:07:08","89.1034","32.7","214.48","108","60.0","17"
"05/11/12 07:12:08","89.106","33.3","213.46","23","60.0","17"
"05/11/12 07:17:07","89.1089","47.1","214.78","221","60.0","18"
"05/11/12 07:22:08","89.1126","56.0","215.03","263","60.03","18"
"05/11/12 07:27:06","89.1162","50.3","214.6","106","60.0","19"
"05/11/12 07:32:08","89.12","44.1","214.89","363","60.0","19"
"05/11/12 07:37:07","89.1239","55.7","215.12","239","60.03","19"
"05/11/12 07:42:06","89.1278","40.3","215.23","179","60.0","20"
"05/11/12 07:47:07","89.131","50.0","213.21","345","60.0","20"
"05/11/12 07:52:08","89.1351","49.9","215.59","172","60.0","20"
"05/11/12 07:57:06","89.1408","92.2","215.78","444","60.0","21"
"05/11/12 08:02:07","89.148","91.8","215.18","446","60.03","22"
"05/11/12 08:07:07","89.1551","89.9","215.12","433","60.03","22"
"05/11/12 08:12:07","89.162","98.0","215.76","469","60.0","22"
"05/11/12 08:17:08","89.1698","103.0","215.99","488","60.0","23"
"05/11/12 08:22:08","89.178","107.3","216.47","509","60.0","23"
"05/11/12 08:27:08","89.1863","98.8","215.9","471","60.0","24"
"05/11/12 08:32:06","89.1942","115.4","217.02","545","60.0","24"
"05/11/12 08:37:07","89.203","117.1","216.03","551","60.03","24"
"05/11/12 08:42:08","89.2124","117.6","215.85","558","60.03","25"
"05/11/12 08:47:07","89.2218","126.1","216.74","591","60.0","25"
"05/11/12 08:52:08","89.2317","127.8","215.89","599","60.0","26"
"05/11/12 08:57:07","89.2418","130.9","215.87","614","60.03","26"
"05/11/12 09:02:06","89.252","133.4","216.57","622","60.0","27"
"05/11/12 09:07:08","89.2626","138.0","216.28","642","60.03","27"
"05/11/12 09:12:07","89.2735","142.9","216.57","668","60.03","27"
"05/11/12 09:17:06","89.2849","147.0","216.65","680","60.0","28"
"05/11/12 09:22:06","89.2964","149.7","217.05","692","60.0","28"
"05/11/12 09:27:07","89.3083","154.2","215.59","709","60.03","28"
"05/11/12 09:32:08","89.3205","156.4","216.21","716","60.0","29"
"05/11/12 09:37:08","89.3328","159.9","215.27","736","60.03","29"
"05/11/12 09:42:07","89.3455","165.1","217.33","754","60.03","30"
"05/11/12 09:47:08","89.3583","162.6","217.73","746","60.03","30"
"05/11/12 09:52:08","89.3713","168.5","217.4","768","60.0","31"
"05/11/12 09:57:08","89.3839","155.5","216.88","719","60.03","31"
"05/11/12 10:02:07","89.3958","153.4","217.88","701","60.03","31"
"05/11/12 10:07:08","89.4083","164.7","217.48","754","60.03","32"
"05/11/12 10:12:07","89.4214","163.9","218.19","745","60.0","32"
"05/11/12 10:17:07","89.4345","172.7","218.28","782","60.03","32"
"05/11/12 10:22:08","89.4475","163.5","218.03","747","60.03","32"
"05/11/12 10:27:08","89.4599","149.7","217.64","689","60.07","32"
"05/11/12 10:32:07","89.4733","185.1","218.45","839","60.0","33"
"05/11/12 10:37:07","89.4877","188.7","217.43","851","60.03","34"
"05/11/12 10:42:08","89.5026","192.9","217.65","872","60.0","34"
"05/11/12 10:47:06","89.5176","192.4","218.09","875","60.07","35"
"05/11/12 10:52:07","89.5324","189.2","218.1","851","60.0","35"
"05/11/12 10:57:07","89.5474","195.7","218.89","890","60.07","36"
"05/11/12 11:02:07","89.5626","194.7","218.82","876","60.0","36"
"05/11/12 11:07:08","89.5778","196.5","218.83","878","60.03","37"
"05/11/12 11:12:07","89.5931","194.8","218.14","890","60.03","37"
"05/11/12 11:17:07","89.6084","195.5","218.92","885","60.03","37"
"05/11/12 11:22:08","89.6237","195.4","218.61","881","60.03","38"
"05/11/12 11:27:08","89.6388","196.1","218.87","885","60.0","38"
"05/11/12 11:32:08","89.6541","196.2","219.11","882","60.03","38"
"05/11/12 11:37:08","89.6693","196.1","218.28","879","60.0","38"
"05/11/12 11:42:07","89.6843","190.3","218.19","857","60.03","37"
"05/11/12 11:47:08","89.6993","184.8","218.48","830","60.03","37"
"05/11/12 11:52:08","89.7137","183.9","218.22","839","60.03","37"
"05/11/12 11:57:08","89.7276","176.9","217.76","810","60.03","37"
"05/11/12 12:02:08","89.7415","178.4","218.0","807","60.03","36"
"05/11/12 12:07:07","89.7551","186.9","218.75","847","60.03","37"
"05/11/12 12:12:06","89.7702","189.0","218.91","852","60.0","37"
"05/11/12 12:17:07","89.7854","196.5","218.97","887","60.03","38"
"05/11/12 12:22:07","89.8006","195.6","217.47","885","60.03","38"
"05/11/12 12:27:08","89.8159","196.7","217.8","887","60.07","38"
"05/11/12 12:32:06","89.8311","196.2","217.84","889","60.0","38"
"05/11/12 12:37:06","89.8463","196.1","217.31","891","60.0","39"
"05/11/12 12:42:07","89.8616","195.8","218.31","885","60.03","39"
"05/11/12 12:47:08","89.8769","196.5","218.69","881","60.03","39"
"05/11/12 12:52:08","89.8895","196.1","218.57","883","60.03","39"
"05/11/12 12:57:07","89.9046","196.1","218.41","883","60.03","39"
"05/11/12 13:02:07","89.9198","196.1","218.45","883","60.03","39"
"05/11/12 13:07:08","89.9323","186.5","218.21","842","60.03","38"
"05/11/12 13:12:07","89.9474","196.4","218.77","887","60.03","38"
"05/11/12 13:17:07","89.9614","196.0","218.46","886","60.03","38"